DW0033 Northboro MA US current weather conditions

sailwx.info

Wind from 155

Air temperature 26.1° C
Dewpoint 19.0° C

Last reported at 2020-Jul-06 19:00 UTC.
Time now 2020-Jul-06 19:28 UTC

Location: N 42°20' W 071°38'.
View on Google Maps.

See reports from other nearby stations

  
Tides and Currents Weather Stations Pressure Air Temp Water Temp Dewpoint Dewpoint Depression Visibility Wind Speed Wind Dir Waves Ship Positions
date/time (UTC)wind fromknots sea level pressurealtimeterstation pressurevisibilityair tempwater tempwave heightnotes
2020-Jul-06 19:00 155 26.1
2020-Jul-06 18:45 155 2 gusting 6 27.2
2020-Jul-06 18:30 121 26.7
2020-Jul-06 18:15 131 26.7
2020-Jul-06 18:00 158 1 gusting 6 27.2
2020-Jul-06 17:45 148 0 gusting 4 26.7
2020-Jul-06 17:30 144 27.2
2020-Jul-06 17:15 124 26.7
2020-Jul-06 17:00 061 26.7
2020-Jul-06 16:45 148 26.1
2020-Jul-06 16:30 103 26.1
2020-Jul-06 16:15 098 25.6
2020-Jul-06 16:00 129 26.1
2020-Jul-06 15:46 306 26.1
2020-Jul-06 15:32 103 24.4
2020-Jul-06 15:18 159 23.9
2020-Jul-06 15:01 323 22.8
2020-Jul-06 14:46 022 22.8
2020-Jul-06 14:31 038 22.2
2020-Jul-06 14:17 038 21.1
2020-Jul-06 14:01 039 20.6
2020-Jul-06 13:46 103 1 gusting 4 20.6
2020-Jul-06 13:31 015 20.6
2020-Jul-06 13:15 063 20.0
2020-Jul-06 13:01 064 20.0
2020-Jul-06 12:46 019 20.0
2020-Jul-06 12:30 020 20.0
2020-Jul-06 12:16 321 19.4
2020-Jul-06 12:00 321 19.4
2020-Jul-06 11:46 319 18.9
2020-Jul-06 11:31 319 18.9
2020-Jul-06 11:15 319 18.9
2020-Jul-06 11:00 051 18.3
2020-Jul-06 10:45 051 18.3
2020-Jul-06 10:30 051 17.8
2020-Jul-06 10:15 051 17.8
2020-Jul-06 10:00 062 17.2
2020-Jul-06 09:45 057 17.2
2020-Jul-06 09:31 057 17.2
2020-Jul-06 09:16 057 17.2
2020-Jul-06 09:00 163 17.2
2020-Jul-06 08:45 046 17.2
2020-Jul-06 08:30 046 17.2
2020-Jul-06 08:15 046 17.2
2020-Jul-06 08:00 046 17.2
2020-Jul-06 07:45 046 16.7
2020-Jul-06 07:30 046 16.7
2020-Jul-06 07:15 046 16.7
2020-Jul-06 07:00 046 16.7
2020-Jul-06 06:45 046 16.7
2020-Jul-06 06:30 046 16.7
2020-Jul-06 06:15 046 17.2
2020-Jul-06 06:00 046 17.2
2020-Jul-06 05:47 046 17.2
2020-Jul-06 05:32 046 17.8
2020-Jul-06 05:16 046 17.8
2020-Jul-06 05:01 046 17.8
2020-Jul-06 04:46 046 18.3
2020-Jul-06 04:31 047 18.3
2020-Jul-06 04:16 046 18.9
2020-Jul-06 04:01 046 18.9
2020-Jul-06 03:46 046 19.4
2020-Jul-06 03:32 047 19.4
2020-Jul-06 03:16 046 20.0
2020-Jul-06 03:01 005 20.6
2020-Jul-06 02:47 313 21.1
2020-Jul-06 02:32 117 21.7
2020-Jul-06 02:15 333 22.2
2020-Jul-06 02:00 092 22.2
2020-Jul-06 01:46 147 22.8
2020-Jul-06 01:31 148 22.8
2020-Jul-06 01:16 148 22.8
2020-Jul-06 01:01 147 22.8
2020-Jul-06 00:46 147 22.8
2020-Jul-06 00:31 147 23.3
2020-Jul-06 00:15 147 23.9
2020-Jul-06 00:01 147 24.4
2020-Jul-05 23:46 148 25.0
2020-Jul-05 23:30 148 25.6
2020-Jul-05 23:15 124 25.6
2020-Jul-05 23:00 113 0 gusting 3 26.1
2020-Jul-05 22:45 098 26.7
2020-Jul-05 22:31 136 0 gusting 5 26.7
2020-Jul-05 22:15 092 26.7
2020-Jul-05 22:01 149 1 gusting 6 26.7
2020-Jul-05 21:47 114 0 gusting 4 26.7
2020-Jul-05 21:30 266 26.1
2020-Jul-05 21:16 265 26.1
2020-Jul-05 21:00 265 26.7
2020-Jul-05 20:46 265 26.7
2020-Jul-05 20:30 265 27.8
2020-Jul-05 20:16 216 28.9
2020-Jul-05 20:00 173 30.0
2020-Jul-05 19:45 169 29.4
2020-Jul-05 19:31 156 2 gusting 8 28.9
2020-Jul-05 19:16 240 1 gusting 6 28.9
2020-Jul-05 19:01 225 0 gusting 4 28.9
2020-Jul-05 18:45 182 28.9
2020-Jul-05 18:30 161 0 gusting 7 28.9
2020-Jul-05 18:15 168 28.9
2020-Jul-05 18:00 172 1 gusting 5 28.9
2020-Jul-05 17:46 210 1 gusting 4 29.4
2020-Jul-05 17:30 138 29.4
2020-Jul-05 17:15 061 29.4
2020-Jul-05 17:00 138 28.9
2020-Jul-05 16:45 165 0 gusting 3 28.9
2020-Jul-05 16:30 136 28.3
2020-Jul-05 16:15 138 28.3
2020-Jul-05 16:00 216 28.3
2020-Jul-05 15:45 225 2 gusting 6 27.8
2020-Jul-05 15:30 185 26.7
2020-Jul-05 15:15 184 25.6
2020-Jul-05 15:01 198 24.4
2020-Jul-05 14:46 210 23.3
2020-Jul-05 14:31 215 23.3
2020-Jul-05 14:16 215 23.3
2020-Jul-05 14:01 205 22.8
2020-Jul-05 13:46 241 22.8
2020-Jul-05 13:31 281 22.2
2020-Jul-05 13:16 211 21.7
2020-Jul-05 13:00 221 21.1
2020-Jul-05 12:46 232 21.1
2020-Jul-05 12:31 234 0 gusting 3 20.6
2020-Jul-05 12:16 232 20.0
2020-Jul-05 12:01 232 19.4
2020-Jul-05 11:47 232 19.4
2020-Jul-05 11:30 234 18.9
2020-Jul-05 11:15 234 18.9
2020-Jul-05 11:00 234 18.9
2020-Jul-05 10:45 294 18.3
2020-Jul-05 10:31 295 18.3
2020-Jul-05 10:16 296 17.8
2020-Jul-05 10:01 296 17.8
2020-Jul-05 09:46 296 17.8
2020-Jul-05 09:30 296 17.8
2020-Jul-05 09:15 296 17.8
2020-Jul-05 09:01 296 18.3
2020-Jul-05 08:46 296 18.3
2020-Jul-05 08:31 182 18.3
2020-Jul-05 08:15 182 18.3
2020-Jul-05 08:00 182 18.3
2020-Jul-05 07:46 194 18.3
2020-Jul-05 07:31 196 18.3
2020-Jul-05 07:15 198 18.3
2020-Jul-05 07:00 198 18.3
2020-Jul-05 06:45 204 18.3
2020-Jul-05 06:30 204 18.9
2020-Jul-05 06:15 204 18.9
2020-Jul-05 06:00 204 18.9
2020-Jul-05 05:45 204 0 gusting 3 18.9
2020-Jul-05 05:30 202 19.4
2020-Jul-05 05:15 225 1 gusting 5 19.4
2020-Jul-05 05:00 215 19.4
2020-Jul-05 04:45 215 1 gusting 5 19.4
2020-Jul-05 04:30 214 0 gusting 3 20.0
2020-Jul-05 04:15 171 20.0
2020-Jul-05 04:00 171 20.0
2020-Jul-05 03:45 171 20.0
2020-Jul-05 03:30 171 20.6
2020-Jul-05 03:15 171 20.6
2020-Jul-05 03:00 170 20.6
2020-Jul-05 02:45 170 21.1
2020-Jul-05 02:30 170 21.1
2020-Jul-05 02:15 170 21.7
2020-Jul-05 02:02 170 21.7
2020-Jul-05 01:46 170 21.7
2020-Jul-05 01:32 170 22.2
2020-Jul-05 01:01 166 22.2
2020-Jul-05 00:47 166 22.2
2020-Jul-05 00:32 166 22.8
2020-Jul-05 00:18 166 23.3
2020-Jul-05 00:01 166 23.9
2020-Jul-04 23:48 166 24.4
2020-Jul-04 23:31 166 24.4
2020-Jul-04 23:16 163 25.0
2020-Jul-04 23:01 163 25.0
2020-Jul-04 22:46 164 25.0
2020-Jul-04 22:32 163 25.6
2020-Jul-04 22:17 165 25.6
2020-Jul-04 22:02 153 25.0
2020-Jul-04 21:45 121 0 gusting 6 25.6
2020-Jul-04 21:31 122 26.1
2020-Jul-04 21:16 123 27.2
2020-Jul-04 21:00 122 27.8
2020-Jul-04 20:45 204 0 gusting 4 27.2
2020-Jul-04 20:31 144 26.7
2020-Jul-04 20:16 142 27.2
2020-Jul-04 20:01 145 27.8
2020-Jul-04 19:45 135 27.8
2020-Jul-04 19:30 159 28.3
2020-Jul-04 19:15 153 28.3
2020-Jul-04 19:00 098 27.8